Flag for U.S.A. Weather past 2 weeks in Santa Barbara, California, U.S.A.

Now
65 °F

Sunny.


Feels Like: 65 °F
Forecast: 50 / 66 °F
Wind: 6 mph from Southwest

Location: Santa Barbara Municipal Airport

Current Time: Jan 31, 2015 at 1:48:33 PM

Latest Report: Jan 31, 2015 at 12:53 PM


Visibility: 10 mi

Pressure: 29.90 "Hg

Humidity: 68%

Dew point: 54 °F

Location of Santa BarbaraLocation

Historic Weather in Santa Barbara — Graph

°F

Santa Barbara temperature yesterday

Maximum temperature yesterday: 69 °F (at 3:53 PM)
Minimum temperature yesterday: 49 °F (at 4:53 AM)
Average temperature yesterday: 58 °F

Past Weeks' High & Low Weather Summary

 TemperatureHumidityPressure
High79 °F (Jan 25, 1:53 PM)100% (Jan 19, 3:53 AM)30.26 "Hg (Jan 19, 3:53 AM)
Low41 °F (Jan 24, 3:53 AM)16% (Jan 25, 12:53 PM)29.82 "Hg (Jan 30, 3:53 PM)
Average57 °F73%30.07 "Hg
* Reported Jan 16 11:53 AM — Jan 31 11:53 AM, Santa Barbara, Weather by CustomWeather, © 2014

Note: Actual official high and low records may vary slightly from our data, if they occured in-between our weather recording intervals... More about our weather records

Advertising

Santa Barbara weather history for previous 24 hours

 ConditionsComfort  
Time TempWeatherWind HumidityBarometerVisibility
11:53 AM
Jan 31
63 °FSunny.8 mph78%29.92 "Hg10 mi
10:53 AM64 °FSunny.7 mph73%29.93 "Hg10 mi
9:53 AM61 °FSunny.3 mph81%29.93 "Hg10 mi
8:53 AM60 °FPassing clouds.5 mph75%29.90 "Hg10 mi
8:00 AM55 °FPartly sunny.5 mph83%29.89 "Hg10 mi
6:53 AM50 °FOvercast.No wind96%29.87 "Hg9 mi
5:53 AM47 °FPassing clouds.No wind97%29.84 "Hg8 mi
4:53 AM49 °FPassing clouds.No wind93%29.83 "Hg7 mi
3:53 AM50 °FFog.7 mph96%29.82 "Hg6 mi
2:53 AM48 °FClear.No wind93%29.83 "Hg10 mi
1:53 AM48 °FClear.No wind93%29.83 "Hg10 mi
12:53 AM51 °FClear.5 mph86%29.83 "Hg10 mi
11:53 PM
Jan 30
50 °FClear.No wind93%29.84 "Hg10 mi
10:53 PM51 °FClear.3 mph89%29.85 "Hg10 mi
9:53 PM57 °FClear.5 mph78%29.85 "Hg10 mi
8:53 PM58 °FClear.6 mph81%29.85 "Hg10 mi
7:53 PM59 °FClear.3 mph78%29.85 "Hg10 mi
6:53 PM59 °FClear.No wind87%29.84 "Hg9 mi
5:53 PM61 °FClear.8 mph87%29.83 "Hg9 mi
4:53 PM63 °FSunny.6 mph84%29.83 "Hg8 mi
3:53 PM69 °FSunny.3 mph53%29.82 "Hg10 mi
2:53 PM67 °FScattered clouds.8 mph66%29.83 "Hg10 mi
1:53 PM67 °FPartly sunny.6 mph61%29.84 "Hg10 mi
Weather by CustomWeather, © 2014

See weather overviewHow to use our weather pages